JCSAT-16

Last updated on Jan. 26, 2020, 4:40 a.m. UTC

1 41729U 16050A   20025.72451716 -.00000364  00000-0  00000+0 0  9990
2 41729   0.0437  90.2466 0004551 194.8253 224.1995  1.00269231 12664
UTC
Height (km)
Latitude
Longitude
Inclination
Orbital Period
UTC large
Height (km)
Speed (km/s)
/
Latitude / Longitude
Inclination (degrees)
Orbital Period (minutes)
Azimuth
Elevation
Range (km)
Doppler Factor
iOS Compass Heading
iOS Angle

Next 30 passes for location: Hong Kong

Rise time Rise Azimuth (degrees) Set time Set Azimuth (degrees) Duration Max altitude (degrees)

No matching passes for this satellites